NKS779 KMCO-KFLL

Flight info

Callsign NKS779
Flight time 0h 40m
Altitude 25000
Route DDANY3 JIPOD CUUDA3
Aircraft A20N/M-SDE2E3FGHIRWXY/LB1

Departure

Time 2026-05-04 00:43
Airport Orlando International Airport (KMCO)

Arrival

Time 2026-05-04 01:23
Airport Fort Lauderdale Hollywood International Airport (KFLL)
Time Latitude Longitude Altitude Speed Heading
2026-05-04 00:43 28.45448 -81.02043 13545 ft 288 kts 149°
2026-05-04 00:43 28.43785 -81.00605 13872 ft 313 kts 148°
2026-05-04 00:43 28.42008 -80.99019 14127 ft 337 kts 147°
2026-05-04 00:44 28.40138 -80.97322 14341 ft 361 kts 147°
2026-05-04 00:44 28.38140 -80.95493 14799 ft 373 kts 147°
2026-05-04 00:44 28.36114 -80.93630 15526 ft 377 kts 147°
2026-05-04 00:44 28.34059 -80.91747 16199 ft 383 kts 147°
2026-05-04 00:45 28.31969 -80.89838 16842 ft 389 kts 148°
2026-05-04 00:45 28.29909 -80.87908 17458 ft 398 kts 143°
2026-05-04 00:45 28.28058 -80.85512 18120 ft 412 kts 131°
2026-05-04 00:45 28.26643 -80.82625 18683 ft 427 kts 117°
2026-05-04 00:46 28.25528 -80.79480 19265 ft 431 kts 117°
2026-05-04 00:46 28.24406 -80.76312 19848 ft 435 kts 117°
2026-05-04 00:46 28.23267 -80.73118 20405 ft 439 kts 117°
2026-05-04 00:46 28.22112 -80.69898 20964 ft 443 kts 118°
2026-05-04 00:47 28.20943 -80.66651 21538 ft 447 kts 118°
2026-05-04 00:47 28.19808 -80.63340 22091 ft 453 kts 116°
2026-05-04 00:47 28.18710 -80.59977 22622 ft 457 kts 116°
2026-05-04 00:47 28.17608 -80.56580 23164 ft 461 kts 116°
2026-05-04 00:48 28.16491 -80.53156 23660 ft 465 kts 116°
2026-05-04 00:48 28.15361 -80.49716 24178 ft 467 kts 116°
2026-05-04 00:48 28.14217 -80.46253 24649 ft 470 kts 117°
2026-05-04 00:48 28.13063 -80.42771 24939 ft 473 kts 117°
2026-05-04 00:49 28.11905 -80.39281 25031 ft 474 kts 117°
2026-05-04 00:49 28.10605 -80.35883 25051 ft 465 kts 127°
2026-05-04 00:49 28.08770 -80.32945 25051 ft 451 kts 141°
2026-05-04 00:49 28.06471 -80.30625 25059 ft 435 kts 154°
2026-05-04 00:50 28.03863 -80.29040 25058 ft 418 kts 168°
2026-05-04 00:50 28.01114 -80.28088 25044 ft 411 kts 175°
2026-05-04 00:50 27.98344 -80.27293 25056 ft 411 kts 174°
2026-05-04 00:50 27.95576 -80.26434 25061 ft 413 kts 173°
2026-05-04 00:51 27.92823 -80.25481 25061 ft 415 kts 171°
2026-05-04 00:51 27.90077 -80.24460 25060 ft 416 kts 171°
2026-05-04 00:51 27.87336 -80.23405 25061 ft 416 kts 170°
2026-05-04 00:51 27.84599 -80.22337 25060 ft 416 kts 170°
2026-05-04 00:52 27.81862 -80.21266 25063 ft 417 kts 170°
2026-05-04 00:52 27.79121 -80.20195 25064 ft 416 kts 170°
2026-05-04 00:52 27.76383 -80.19127 25061 ft 416 kts 170°
2026-05-04 00:52 27.73647 -80.18062 25065 ft 416 kts 170°
2026-05-04 00:53 27.70909 -80.16997 25037 ft 417 kts 170°
2026-05-04 00:53 27.68160 -80.15929 25055 ft 416 kts 170°
2026-05-04 00:53 27.65428 -80.14866 25059 ft 415 kts 170°
2026-05-04 00:53 27.62694 -80.13807 25055 ft 416 kts 170°
2026-05-04 00:54 27.59957 -80.12730 25055 ft 417 kts 169°
2026-05-04 00:54 27.58151 -80.11990 25055 ft 417 kts 168°
2026-05-04 00:54 27.55428 -80.10856 25055 ft 417 kts 168°
2026-05-04 00:54 27.52706 -80.09721 25055 ft 417 kts 168°
2026-05-04 00:55 27.49980 -80.08588 25056 ft 417 kts 169°
2026-05-04 00:55 27.47260 -80.07464 25052 ft 417 kts 169°
2026-05-04 00:55 27.44532 -80.06340 25051 ft 417 kts 169°
2026-05-04 00:55 27.41808 -80.05219 25048 ft 417 kts 169°
2026-05-04 00:56 27.39083 -80.04101 25048 ft 416 kts 169°
2026-05-04 00:56 27.36331 -80.03177 25049 ft 411 kts 174°
2026-05-04 00:56 27.33566 -80.02339 25044 ft 412 kts 174°
2026-05-04 00:56 27.30802 -80.01497 24892 ft 412 kts 173°
2026-05-04 00:57 27.28045 -80.00654 24662 ft 410 kts 173°
2026-05-04 00:57 27.25323 -79.99817 24519 ft 402 kts 173°
2026-05-04 00:57 27.22662 -79.98916 24271 ft 396 kts 171°
2026-05-04 00:57 27.20051 -79.97956 23754 ft 395 kts 171°
2026-05-04 00:58 27.17454 -79.96990 23226 ft 391 kts 171°
2026-05-04 00:58 27.14883 -79.96040 22686 ft 387 kts 171°
2026-05-04 00:58 27.12342 -79.95111 22194 ft 382 kts 171°
2026-05-04 00:58 27.09827 -79.94201 21673 ft 377 kts 171°
2026-05-04 00:59 27.07371 -79.93317 21177 ft 374 kts 171°
2026-05-04 00:59 27.04909 -79.92401 20677 ft 372 kts 169°
2026-05-04 00:59 27.02479 -79.91421 20174 ft 370 kts 168°
2026-05-04 00:59 27.00038 -79.90416 19669 ft 368 kts 167°
2026-05-04 01:00 26.97668 -79.89441 19135 ft 367 kts 167°
2026-05-04 01:00 26.95278 -79.88468 18680 ft 364 kts 167°
2026-05-04 01:00 26.92897 -79.87505 18160 ft 363 kts 167°
2026-05-04 01:00 26.90541 -79.86554 17659 ft 359 kts 167°
2026-05-04 01:01 26.88195 -79.85608 17141 ft 357 kts 167°
2026-05-04 01:01 26.85865 -79.84671 16665 ft 353 kts 167°
2026-05-04 01:01 26.83562 -79.83744 16192 ft 351 kts 167°
2026-05-04 01:01 26.81285 -79.82827 15861 ft 344 kts 167°
2026-05-04 01:02 26.79044 -79.81926 15578 ft 342 kts 166°
2026-05-04 01:02 26.76790 -79.81024 15142 ft 345 kts 166°
2026-05-04 01:02 26.74534 -79.80120 14707 ft 344 kts 166°
2026-05-04 01:02 26.72287 -79.79229 14257 ft 340 kts 168°
2026-05-04 01:03 26.69997 -79.78833 13829 ft 328 kts 185°
2026-05-04 01:03 26.67788 -79.79206 13390 ft 317 kts 202°
2026-05-04 01:03 26.65738 -79.80039 12985 ft 311 kts 205°
2026-05-04 01:03 26.63722 -79.80869 12583 ft 307 kts 204°
2026-05-04 01:04 26.61729 -79.81683 12185 ft 304 kts 204°
2026-05-04 01:04 26.59754 -79.82488 11792 ft 300 kts 204°
2026-05-04 01:04 26.57803 -79.83282 11402 ft 297 kts 204°
2026-05-04 01:04 26.55872 -79.84066 11124 ft 291 kts 204°
2026-05-04 01:05 26.53968 -79.84869 11012 ft 295 kts 206°
2026-05-04 01:05 26.52073 -79.85758 10816 ft 295 kts 207°
2026-05-04 01:05 26.50183 -79.86671 10414 ft 297 kts 207°
2026-05-04 01:05 26.48290 -79.87581 10035 ft 295 kts 207°
2026-05-04 01:06 26.46434 -79.88462 9804 ft 286 kts 207°
2026-05-04 01:06 26.44616 -79.89320 9408 ft 282 kts 207°
2026-05-04 01:06 26.42810 -79.90169 8958 ft 282 kts 207°
2026-05-04 01:06 26.41009 -79.91016 8559 ft 279 kts 207°
2026-05-04 01:07 26.39232 -79.91850 8214 ft 275 kts 206°
2026-05-04 01:07 26.37536 -79.92769 7979 ft 268 kts 214°
2026-05-04 01:07 26.35923 -79.93822 7899 ft 270 kts 213°
2026-05-04 01:07 26.34295 -79.94873 7815 ft 270 kts 213°
2026-05-04 01:08 26.32666 -79.95916 7731 ft 269 kts 213°
2026-05-04 01:08 26.31043 -79.96955 7636 ft 270 kts 213°
2026-05-04 01:08 26.29419 -79.97992 7553 ft 268 kts 213°
2026-05-04 01:08 26.27802 -79.99029 7467 ft 269 kts 213°
2026-05-04 01:09 26.26177 -80.00073 7380 ft 269 kts 213°
2026-05-04 01:09 26.24557 -80.01111 7299 ft 268 kts 213°
2026-05-04 01:09 26.22936 -80.02149 7215 ft 268 kts 213°
2026-05-04 01:09 26.21320 -80.03189 7120 ft 268 kts 213°
2026-05-04 01:10 26.19703 -80.04231 7037 ft 268 kts 213°
2026-05-04 01:10 26.18292 -80.05554 6961 ft 265 kts 233°
2026-05-04 01:10 26.17407 -80.07334 6872 ft 264 kts 252°
2026-05-04 01:10 26.16837 -80.09272 6788 ft 263 kts 252°
2026-05-04 01:11 26.16266 -80.11199 6701 ft 262 kts 252°
2026-05-04 01:11 26.15689 -80.13128 6620 ft 264 kts 252°
2026-05-04 01:11 26.15198 -80.15082 6540 ft 261 kts 259°
2026-05-04 01:11 26.15012 -80.17068 6454 ft 264 kts 268°
2026-05-04 01:12 26.15038 -80.19115 6369 ft 264 kts 269°
2026-05-04 01:12 26.15057 -80.21150 6285 ft 262 kts 269°
2026-05-04 01:12 26.15069 -80.23175 6203 ft 261 kts 269°
2026-05-04 01:12 26.15076 -80.25197 6120 ft 262 kts 269°
2026-05-04 01:13 26.15083 -80.27225 6033 ft 262 kts 269°
2026-05-04 01:13 26.15088 -80.29254 5949 ft 262 kts 269°
2026-05-04 01:13 26.15085 -80.31269 5790 ft 260 kts 269°
2026-05-04 01:13 26.15079 -80.33281 5644 ft 261 kts 269°
2026-05-04 01:14 26.15073 -80.35306 5519 ft 261 kts 269°
2026-05-04 01:14 26.15065 -80.37322 5395 ft 260 kts 269°
2026-05-04 01:14 26.15058 -80.39337 5274 ft 261 kts 269°
2026-05-04 01:14 26.15049 -80.41352 5152 ft 260 kts 269°
2026-05-04 01:15 26.15040 -80.43362 5034 ft 261 kts 269°
2026-05-04 01:15 26.15028 -80.45373 4911 ft 257 kts 268°
2026-05-04 01:15 26.15036 -80.47323 4781 ft 247 kts 270°
2026-05-04 01:15 26.14966 -80.49184 4644 ft 236 kts 255°
2026-05-04 01:16 26.14202 -80.50714 4512 ft 223 kts 224°
2026-05-04 01:16 26.12866 -80.51498 4394 ft 221 kts 195°
2026-05-04 01:16 26.11330 -80.51704 4326 ft 225 kts 175°
2026-05-04 01:16 26.09878 -80.51101 4113 ft 227 kts 144°
2026-05-04 01:17 26.08716 -80.49889 4017 ft 231 kts 134°
2026-05-04 01:17 26.07875 -80.48372 4008 ft 234 kts 107°
2026-05-04 01:17 26.07505 -80.46601 4009 ft 235 kts 103°
2026-05-04 01:17 26.07173 -80.44814 4009 ft 236 kts 103°
2026-05-04 01:18 26.06871 -80.43025 4008 ft 235 kts 98°
2026-05-04 01:18 26.06759 -80.41249 4008 ft 222 kts 92°
2026-05-04 01:18 26.06742 -80.39582 3993 ft 213 kts 91°
2026-05-04 01:18 26.06730 -80.37933 3900 ft 210 kts 91°
2026-05-04 01:19 26.06720 -80.36322 3582 ft 206 kts 91°
2026-05-04 01:19 26.06710 -80.34744 3298 ft 201 kts 91°
2026-05-04 01:19 26.06700 -80.33208 3012 ft 196 kts 91°
2026-05-04 01:19 26.06690 -80.31709 2753 ft 193 kts 91°
2026-05-04 01:20 26.06680 -80.30231 2497 ft 192 kts 90°
2026-05-04 01:20 26.06671 -80.28758 2267 ft 186 kts 90°
2026-05-04 01:20 26.06662 -80.27303 2015 ft 188 kts 90°
2026-05-04 01:20 26.06654 -80.25863 1770 ft 185 kts 89°
2026-05-04 01:21 26.06645 -80.24437 1516 ft 178 kts 89°
2026-05-04 01:21 26.06636 -80.23142 1304 ft 157 kts 89°
2026-05-04 01:21 26.06629 -80.21998 1107 ft 141 kts 88°
2026-05-04 01:21 26.06623 -80.20948 924 ft 133 kts 88°
2026-05-04 01:22 26.06617 -80.19905 764 ft 134 kts 87°
2026-05-04 01:22 26.06610 -80.18873 582 ft 133 kts 88°
2026-05-04 01:22 26.06600 -80.17837 410 ft 133 kts 88°
2026-05-04 01:22 26.06596 -80.16804 231 ft 134 kts 89°
2026-05-04 01:23 26.06588 -80.15770 72 ft 133 kts 88°
2026-05-04 01:23 26.06587 -80.14799 22 ft 104 kts 91°
2026-05-04 01:23 26.06582 -80.14314 53 ft 35 kts 91°
2026-05-04 01:23 26.06581 -80.14073 67 ft 25 kts 91°
2026-05-04 01:24 26.06581 -80.13909 74 ft 18 kts 84°
2026-05-04 01:24 26.06634 -80.13777 67 ft 19 kts 50°
2026-05-04 01:24 26.06679 -80.13724 65 ft 2 kts 39°
2026-05-04 01:24 26.06694 -80.13717 71 ft 2 kts 18°
2026-05-04 01:25 26.06700 -80.13716 67 ft 0 kts
2026-05-04 01:25 26.06701 -80.13716 67 ft 0 kts
2026-05-04 01:25 26.06714 -80.13717 66 ft 4 kts 348°
2026-05-04 01:26 26.06735 -80.13748 69 ft 7 kts 287°
2026-05-04 01:26 26.06739 -80.13815 74 ft 10 kts 271°
2026-05-04 01:26 26.06742 -80.13909 74 ft 14 kts 272°
2026-05-04 01:26 26.06733 -80.14008 74 ft 11 kts 250°
2026-05-04 01:27 26.06695 -80.14095 63 ft 14 kts 248°
2026-05-04 01:27 26.06677 -80.14196 53 ft 13 kts 269°
2026-05-04 01:27 26.06678 -80.14310 49 ft 14 kts 270°
2026-05-04 01:27 26.06677 -80.14434 45 ft 16 kts 269°
2026-05-04 01:28 26.06676 -80.14544 42 ft 16 kts 269°
2026-05-04 01:28 26.06676 -80.14686 31 ft 18 kts 271°
2026-05-04 01:28 26.06678 -80.14809 21 ft 16 kts 273°
2026-05-04 01:28 26.06699 -80.14901 19 ft 12 kts 306°
2026-05-04 01:29 26.06762 -80.14895 15 ft 11 kts 67°
2026-05-04 01:29 26.06767 -80.14810 15 ft 11 kts 89°
2026-05-04 01:29 26.06768 -80.14725 15 ft 12 kts 89°
2026-05-04 01:29 26.06768 -80.14645 15 ft 9 kts 90°
2026-05-04 01:30 26.06794 -80.14584 15 ft 9 kts 39°
2026-05-04 01:30 26.06819 -80.14520 15 ft 10 kts 88°
2026-05-04 01:30 26.06820 -80.14462 15 ft 4 kts 91°
2026-05-04 01:30 26.06831 -80.14433 15 ft 4 kts 32°
2026-05-04 01:31 26.06856 -80.14431 15 ft 4 kts 359°
2026-05-04 01:31 26.06878 -80.14431 15 ft 3 kts
2026-05-04 01:31 26.06881 -80.14431 15 ft 0 kts